map of MEC home
Great Circle Mapper logo
MEC - Airport
Location
City:  Manta, Manabí, Ecuador
Name:Eloy Alfaro International Airport
ICAO / IATA:SEMT / MEC

Details
Type:Airport (Aerodrome, Airfield)
Use:Public/Civil, Military, International (customs port of entry)
Latitude:0°56'46"S (-0.946077)
Longitude:80°40'44"W (-80.678807)
Datum:WGS 1984
Elevation:48 ft (15 m)
Variation:1.42°W (WMM2015 magnetic declination)
-0.15° annual change
Runways:1
Longest:9383 × 148 ft (2860 × 45 m), paved

Time
Time Zone:UTC-5
Local Time:

Weather
METAR:SEMT 250300Z 17009KT 9999 FEW026 BKN100 26/21 Q1012
TAF:SEMT 242225Z 2500/2524 19008KT 9999 SCT023 BKN100
FM251100 18008KT 9999 BKN023
FM251800 27008KT 9999 SCT023 SCT090 TX31/2519Z TN24/2510Z

Related Locations
Nearby:
Farthest:AEG: 12443 mi / 20025 km
Padang Sidempuan [Aek Godang], Sumatra, ID

Find:

   beyond  
but within

Other Information
Maps:
NOTAMs:
Links:
Sources:

  
flag of Ecuador   

Airport Diagram

Airport diagram for MEC

Airport diagram (OBSOLETE) from NGA

Sectional Chart

Flight Planning
at skyvector.com

Satellite Image

Google Maps Satellite View

 

Copyright © 2004-2015 Karl L. Swartz. All rights reserved.
The Great Circle Mapper name and logo are trademarks of the Great Circle Mapper.
All other trademarks mentioned herein belong to their respective owners.
Please see credits for attibutions and further copyright information.

  Follow gcmap on Facebook Follow gcmap on Twitter

hCard Microformat

Geo Microformat